Regional Weather Roundup
Issued by NWS Cleveland, OH

Home | Current Version | Previous Version | Graphics & Text | Print | Product List | Glossary On
Versions: 1 2 3 4 5 6 7 8 9 10 11 12 13 14 15 16 17 18 19 20 21 22 23 24 25 26 27 28 29 30 31 32 33 34 35 36 37 38 39 40 41 42 43 44 45 46 47 48 49 50
000
ASUS41 KCLE 190202
RWRCLE
OHIO REGIONAL WEATHER ROUNDUP
NATIONAL WEATHER SERVICE CLEVELAND, OH
1000 PM EDT FRI AUG 18 2017

NOTE: "FAIR" INDICATES FEW OR NO CLOUDS BELOW 12,000 FEET WITH NO
SIGNIFICANT WEATHER AND/OR OBSTRUCTIONS TO VISIBILITY.

OHZ001>008-015>018-024>027-034-035-043-044-190300-
   NORTHWEST OHIO

CITY           SKY/WX    TMP DP  RH WIND       PRES   REMARKS
DEFIANCE       CLEAR     69  62  78 CALM      29.87R
FINDLAY        PTCLDY    69  63  81 SW3       29.88R
TOLEDO EXPRESS CLEAR     70  63  78 NW3       29.87R
TOLEDO EXEC    PTCLDY    71  64  78 W6        29.88R
LIMA           CLEAR     68  65  90 CALM      29.90R
$$

OHZ009>014-019>023-028>033-038-089-190300-
   NORTHEAST OHIO

CITY           SKY/WX    TMP DP  RH WIND       PRES   REMARKS
CLE-HOPKINS    PTCLDY    75  63  66 W6        29.88R
CLE-LAKEFRONT  MOCLDY    74  66  76 W10       29.85R
CUY CO. ARPT   MOCLDY    75  63  64 W9        29.87R
LORAIN-ELYRIA  PTCLDY    69  60  73 W5        29.88R
ASHTABULA      PTCLDY    68  64  87 W5        29.87R
AKRON-CANTON   CLEAR     72  60  66 W6        29.89R
WOOSTER        CLEAR     65  62  90 W5        29.90R
MANSFIELD      CLEAR     70  62  76 W3        29.91R
YOUNGSTOWN     PTCLDY    69  64  84 CALM      29.88R
$$

OHZ042-051>053-060>062-070>072-077>081-190300-
  SOUTHWEST OHIO

CITY           SKY/WX    TMP DP  RH WIND       PRES   REMARKS
CINC-COVINGTON CLEAR     74  66  76 SW6       29.93R
CINC-LUNKEN    CLEAR     70  66  87 S5        29.93R
HAMILTON       CLEAR     68  66  93 CALM      29.93R
DAYTON         CLEAR     72  64  76 SW9       29.92R
WRIGHT-PAT AFB CLEAR     70  65  83 SW5       29.91R
DAYTON GENERAL CLEAR     76  63  64 SW6       29.92R
WILMINGTON     CLEAR     69  66  90 SW6       29.93R
$$

OHZ036-037-039>041-045>050-054>059-063>069-073>076-082>088-190300-
  CENTRAL AND SOUTHEAST OHIO

CITY           SKY/WX    TMP DP  RH WIND       PRES   REMARKS
COLUMBUS       CLEAR     76  65  68 W5        29.89R
OSU AIRPORT    CLEAR     73  65  75 W6        29.90R
BOLTON FIELD   CLEAR     69  65  88 SW3       29.91S
RICKENBACK AFB CLEAR     71  65  84 W5        29.90S
NEWARK         CLEAR     70  64  81 W6        29.89R
MARION         CLEAR     73  62  68 W6        29.90R
LANCASTER      CLEAR     71  65  81 W5        29.91R
ZANESVILLE     CLEAR     74  64  71 SW3       29.89R
NEW PHILLY     NOT AVBL
$$




USA.gov is the U.S. government's official web portal to all federal, state and local government web resources and services.